Location: ?????
(44.4284°N, 135.2222°E)
Time: 04:24:12
(UTC+00:00)

Cosmos 1238 Rocket - Pass Details

Date: 19 May 2025
Orbit: 356 x 778 km, 82.9° (Epoch: 15 June)

Event Time Altitude Azimuth Distance (km) Brightness Sun altitude
Exits shadow 13:21:46 35° 251° (WSW) 814 3.7 -22.2°
Maximum altitude 13:22:29 39° 281° (W) 740 3.7 -22.2°
Drops below altitude 10° 13:25:42 10° 352° (N) 1,572 6.2 -22.5°
Sets 13:27:44 0° 0° (N) 2,386 7.2 -22.6°
